Terminal Aerodrome Forecast
Issued by NWS

Home | Current Version | Previous Version | Graphics & Text | Print | Product List | Glossary On
Versions: 1 2 3 4 5 6 7 8 9 10 11 12 13 14 15 16 17 18 19 20 21 22
000
FTUS45 KGGW 170500
TAFGDV
TAF
KGDV 170520Z 1706/1806 VRB06KT P6SM FEW001 SCT035
     FM171200 VRB04KT P6SM BKN022 BKN090
     FM171800 VRB03KT P6SM SKC
      AMD LTD TO CLD VIS AND WIND=

USA.gov is the U.S. government's official web portal to all federal, state and local government web resources and services.